Location: ????????
(55.0559°N, 39.1270°E)
Time: 09:22:33
(UTC+00:00)

CZ-4 R/B - Pass Details

Date: 15 November 2025
Orbit: 675 x 744 km, 98.7° (Epoch: 14 December)

Event Time Altitude Azimuth Distance (km) Brightness Sun altitude
Rises 02:31:17 0° 17° (NNE) 3,165 7.4 -20.3°
Reaches altitude 10° 02:33:37 10° 20° (NNE) 2,229 6.6 -20.0°
Maximum altitude 02:38:29 69° 104° (ESE) 768 4.1 -19.3°
Drops below altitude 10° 02:43:14 10° 188° (S) 2,168 6.3 -18.6°
Sets 02:45:28 0° 191° (S) 3,071 7.1 -18.3°
